Hettinger, ND

5:47 PM MDT on July 21, 2017 (GMT -0600)
Hettinger Municipal

Weather History for KHEI - August, 2013

Change the Weather History Date:

Tuesday, August 13, 2013

  Actual Average Record
Temperature  
Mean Temperature 63 °F -  
Max Temperature 71 °F 85 °F 98 °F (2003)
Min Temperature 55 °F 54 °F 35 °F (2004)
Degree Days  
Heating Degree Days 2    
Cooling Degree Days 0 6  
Month to date cooling degree days 8 78  
Year to date cooling degree days 106 278  
Since 1 June cooling degree days 99 273  
Growing Degree Days 12 (Base 50)    
Moisture  
Dew Point 56 °F    
Average Humidity 78    
Maximum Humidity 87    
Minimum Humidity 66    
Precipitation  
Precipitation 0.07 in 0.05 in 0.07 in (2012)
Month to date precipitation 1.52 0.85  
Year to date precipitation 16.22 11.43  
Sea Level Pressure  
Sea Level Pressure 30.16 in    
Wind  
Wind Speed 7 mph (ESE)    
Max Wind Speed 20 mph    
Max Gust Speed 26 mph    
Visibility 10 miles    
Events Rain , Thunderstorm    
T = Trace of Precipitation, MM = Missing Value Source: NWS Daily Summary

Daily Weather History Graph

Daily Weather History Graph

Search for Another Location

Airport or City:

Trip Planner

Search our weather history database for the weather conditions in past years. The results will help you decide how hot, cold, wet, or windy it might be!

Date:

Astronomy

Aug. 13, 2013 Rise Set
Actual Time 5:48 AM MDT 8:01 PM MDT
Civil Twilight 5:15 AM MDT 8:34 PM MDT
Nautical Twilight 4:34 AM MDT 9:15 PM MDT
Astronomical Twilight 3:48 AM MDT 10:00 PM MDT
Moon 1:11 PM MDT (8/13) 11:11 PM MDT (8/13)
Length of Visible Light 15h 19m
Length of Day
14h 13m
Waxing Crescent, 42% of the Moon is Illuminated
Aug 13
Waxing Crescent
Aug 14
First Quarter
Aug 20
Full
Aug 28
Last Quarter
Sep 5
New

Hourly Weather History & Observations

Time (MDT) Temp. Dew Point Humidity Pressure Visibility Wind Dir Wind Speed Gust Speed Precip Events Conditions
12:53 AM 60.1 °F 54.0 °F 80% 30.12 in 10.0 mi East 8.1 mph - N/A   Partly Cloudy
1:53 AM 57.0 °F 51.1 °F 81% 30.12 in 10.0 mi East 3.5 mph - N/A   Clear
2:53 AM 57.9 °F 51.1 °F 78% 30.12 in 10.0 mi East 9.2 mph - N/A   Scattered Clouds
3:53 AM 57.0 °F 50.0 °F 77% 30.12 in 10.0 mi ESE 4.6 mph - N/A   Clear
4:53 AM 55.9 °F 50.0 °F 80% 30.15 in 10.0 mi ENE 3.5 mph - N/A   Partly Cloudy
5:53 AM 59.0 °F 54.0 °F 83% 30.16 in 10.0 mi East 4.6 mph - N/A   Overcast
6:53 AM 60.1 °F 54.0 °F 80% 30.17 in 10.0 mi ESE 11.5 mph - N/A   Scattered Clouds
7:53 AM 61.0 °F 52.0 °F 72% 30.18 in 10.0 mi ESE 10.4 mph - N/A   Mostly Cloudy
8:29 AM 62.6 °F 51.8 °F 68% 30.21 in 10.0 mi ESE 10.4 mph - N/A   Mostly Cloudy
8:44 AM 64.4 °F 53.6 °F 68% 30.21 in 10.0 mi ESE 9.2 mph - N/A   Mostly Cloudy
8:53 AM 64.9 °F 53.1 °F 65% 30.19 in 10.0 mi ESE 9.2 mph - N/A   Mostly Cloudy
9:48 AM 60.8 °F 53.6 °F 77% 30.17 in 9.0 mi ESE 18.4 mph 26.5 mph 0.01 in Rain Light Rain
9:53 AM 61.0 °F 55.0 °F 81% 30.15 in 10.0 mi ESE 18.4 mph 26.5 mph 0.02 in Rain Light Rain
10:53 AM 64.9 °F 55.9 °F 73% 30.17 in 10.0 mi ESE 10.4 mph - 0.00 in   Partly Cloudy
11:53 AM 68.0 °F 57.0 °F 68% 30.17 in 10.0 mi East 9.2 mph - N/A   Mostly Cloudy
12:11 PM 68.0 °F 57.2 °F 68% 30.21 in 10.0 mi East 6.9 mph - N/A   Mostly Cloudy
12:53 PM 70.0 °F 57.0 °F 63% 30.18 in 10.0 mi East 6.9 mph - N/A   Overcast
1:53 PM 66.9 °F 61.0 °F 81% 30.19 in 9.0 mi SSE 16.1 mph - 0.00 in Rain Light Rain
2:06 PM 64.4 °F 60.8 °F 88% 30.20 in 2.5 mi SE 16.1 mph - 0.03 in Rain , Thunderstorm Heavy Rain
2:19 PM 62.6 °F 57.2 °F 82% 30.20 in 4.0 mi SE 9.2 mph - 0.05 in Rain Light Rain
2:53 PM 66.0 °F 62.1 °F 87% 30.16 in 10.0 mi ESE 8.1 mph - 0.05 in   Mostly Cloudy
3:53 PM 69.1 °F 62.1 °F 78% 30.14 in 10.0 mi East 9.2 mph - N/A   Partly Cloudy
4:53 PM 68.0 °F 61.0 °F 78% 30.13 in 10.0 mi SE 8.1 mph - N/A   Clear
5:53 PM 68.0 °F 60.1 °F 76% 30.12 in 10.0 mi East 4.6 mph - N/A   Clear
6:53 PM 66.9 °F 62.1 °F 84% 30.09 in 10.0 mi ENE 5.8 mph - N/A   Clear
7:53 PM 64.0 °F 61.0 °F 90% 30.12 in 10.0 mi ENE 6.9 mph - N/A   Clear
8:53 PM 64.0 °F 59.0 °F 84% 30.12 in 10.0 mi East 5.8 mph - N/A   Clear
9:53 PM 61.0 °F 55.0 °F 81% 30.12 in 10.0 mi East 4.6 mph - N/A   Clear
10:53 PM 60.1 °F 55.9 °F 86% 30.13 in 10.0 mi East 3.5 mph - N/A   Clear
11:53 PM 59.0 °F 55.9 °F 90% 30.13 in 10.0 mi ESE 3.5 mph - N/A   Clear